2024-04-25T00:00:00,rvs,17.09
2024-04-25T00:01:00,rvs,12.22
2024-04-25T00:02:00,rvs,14.13
2024-04-25T00:03:00,rvs,16.65
2024-04-25T00:04:00,rvs,17.60
2024-04-25T00:05:00,rvs,18.46
2024-04-25T00:06:00,rvs,20.20
2024-04-25T00:07:00,rvs,20.00
2024-04-25T00:08:00,rvs,20.68
2024-04-25T00:09:00,rvs,20.58
2024-04-25T00:10:00,rvs,19.16
2024-04-25T00:11:00,rvs,18.64
2024-04-25T00:12:00,rvs,20.57
2024-04-25T00:13:00,rvs,20.93
2024-04-25T00:14:00,rvs,19.48
2024-04-25T00:15:00,rvs,18.33
2024-04-25T00:16:00,rvs,16.79
2024-04-25T00:17:00,rvs,16.44
2024-04-25T00:18:00,rvs,19.83
2024-04-25T00:19:00,rvs,20.69
2024-04-25T00:20:00,rvs,20.48
2024-04-25T00:21:00,rvs,24.40
2024-04-25T00:22:00,rvs,26.76
2024-04-25T00:23:00,rvs,28.30
2024-04-25T00:24:00,rvs,29.56
2024-04-25T00:25:00,rvs,30.04
2024-04-25T00:26:00,rvs,25.28
2024-04-25T00:27:00,rvs,10.81
2024-04-25T00:28:00,rvs,14.12
2024-04-25T00:29:00,rvs,15.34
2024-04-25T00:30:00,rvs,14.25
2024-04-25T00:31:00,rvs,16.00
2024-04-25T00:32:00,rvs,18.05
2024-04-25T00:33:00,rvs,17.27
2024-04-25T00:34:00,rvs,17.00
2024-04-25T00:35:00,rvs,19.05
2024-04-25T00:36:00,rvs,20.15
2024-04-25T00:37:00,rvs,21.47
2024-04-25T00:38:00,rvs,24.72
2024-04-25T00:39:00,rvs,27.55
2024-04-25T00:40:00,rvs,30.22
2024-04-25T00:41:00,rvs,38.75
2024-04-25T00:42:00,rvs,35.08
2024-04-25T00:43:00,rvs,36.33
2024-04-25T00:44:00,rvs,36.98
2024-04-25T00:45:00,rvs,32.53
2024-04-25T00:46:00,rvs,40.52
2024-04-25T00:47:00,rvs,41.29
2024-04-25T00:48:00,rvs,37.94
2024-04-25T00:49:00,rvs,35.87
2024-04-25T00:50:00,rvs,36.93
2024-04-25T00:51:00,rvs,20.81
2024-04-25T00:52:00,rvs,20.85
2024-04-25T00:53:00,rvs,20.63
2024-04-25T00:54:00,rvs,20.30
2024-04-25T00:55:00,rvs,18.70
2024-04-25T00:56:00,rvs,18.43
2024-04-25T00:57:00,rvs,18.21
2024-04-25T00:58:00,rvs,18.25
2024-04-25T00:59:00,rvs,18.25
2024-04-25T01:00:00,rvs,18.17
2024-04-25T01:01:00,rvs,18.29
2024-04-25T01:02:00,rvs,18.21
2024-04-25T01:03:00,rvs,18.39
2024-04-25T01:04:00,rvs,18.40
2024-04-25T01:05:00,rvs,18.46
2024-04-25T01:06:00,rvs,14.22
2024-04-25T01:07:00,rvs,18.72
2024-04-25T01:08:00,rvs,23.00
2024-04-25T01:09:00,rvs,25.78
2024-04-25T01:10:00,rvs,29.43
2024-04-25T01:11:00,rvs,26.92
2024-04-25T01:12:00,rvs,26.25
2024-04-25T01:13:00,rvs,43.95
2024-04-25T01:14:00,rvs,51.77
2024-04-25T01:15:00,rvs,49.90
2024-04-25T01:16:00,rvs,41.79
2024-04-25T01:17:00,rvs,38.27
2024-04-25T01:18:00,rvs,40.94
2024-04-25T01:19:00,rvs,45.35
2024-04-25T01:20:00,rvs,46.41
2024-04-25T01:21:00,rvs,39.57
2024-04-25T01:22:00,rvs,33.73
2024-04-25T01:23:00,rvs,43.67
2024-04-25T01:24:00,rvs,48.51
2024-04-25T01:25:00,rvs,39.27
2024-04-25T01:26:00,rvs,49.23
2024-04-25T01:27:00,rvs,52.04
2024-04-25T01:28:00,rvs,49.22
2024-04-25T01:29:00,rvs,48.46
2024-04-25T01:30:00,rvs,28.98
2024-04-25T01:31:00,rvs,30.96
2024-04-25T01:32:00,rvs,36.15
2024-04-25T01:33:00,rvs,41.09
2024-04-25T01:34:00,rvs,46.10
2024-04-25T01:35:00,rvs,46.68
2024-04-25T01:36:00,rvs,43.56
2024-04-25T01:37:00,rvs,49.48
2024-04-25T01:38:00,rvs,39.12
2024-04-25T01:39:00,rvs,36.49
2024-04-25T01:40:00,rvs,36.39
2024-04-25T01:41:00,rvs,37.60
2024-04-25T01:42:00,rvs,37.72
2024-04-25T01:43:00,rvs,39.20
2024-04-25T01:44:00,rvs,39.66
2024-04-25T01:45:00,rvs,41.66
2024-04-25T01:46:00,rvs,25.88
2024-04-25T01:47:00,rvs,26.34
2024-04-25T01:48:00,rvs,16.67
2024-04-25T01:49:00,rvs,16.02
2024-04-25T01:50:00,rvs,16.73
2024-04-25T01:51:00,rvs,17.36
2024-04-25T01:52:00,rvs,17.94
2024-04-25T01:53:00,rvs,16.41
2024-04-25T01:54:00,rvs,16.37
2024-04-25T01:55:00,rvs,15.53
2024-04-25T01:56:00,rvs,9.25
2024-04-25T01:57:00,rvs,9.41
2024-04-25T01:58:00,rvs,9.25
2024-04-25T01:59:00,rvs,9.34
2024-04-25T02:00:00,rvs,9.71
2024-04-25T02:01:00,rvs,10.68
2024-04-25T02:02:00,rvs,10.80
2024-04-25T02:03:00,rvs,10.50
2024-04-25T02:04:00,rvs,10.70
2024-04-25T02:05:00,rvs,10.35
2024-04-25T02:06:00,rvs,10.46
2024-04-25T02:07:00,rvs,13.70
2024-04-25T02:08:00,rvs,12.41
2024-04-25T02:09:00,rvs,13.23
2024-04-25T02:10:00,rvs,13.89
2024-04-25T02:11:00,rvs,17.32
2024-04-25T02:12:00,rvs,17.44
2024-04-25T02:13:00,rvs,24.54
2024-04-25T02:14:00,rvs,34.72
2024-04-25T02:15:00,rvs,35.94
2024-04-25T02:16:00,rvs,35.45
2024-04-25T02:17:00,rvs,22.25
2024-04-25T02:18:00,rvs,28.84
2024-04-25T02:19:00,rvs,29.59
2024-04-25T02:20:00,rvs,32.35
2024-04-25T02:21:00,rvs,33.67
2024-04-25T02:22:00,rvs,25.98
2024-04-25T02:23:00,rvs,25.59
2024-04-25T02:24:00,rvs,27.83
2024-04-25T02:25:00,rvs,29.45
2024-04-25T02:26:00,rvs,26.34
2024-04-25T02:27:00,rvs,25.99
2024-04-25T02:28:00,rvs,27.81
2024-04-25T02:29:00,rvs,22.15
2024-04-25T02:30:00,rvs,21.80
2024-04-25T02:31:00,rvs,25.58
2024-04-25T02:32:00,rvs,14.16
2024-04-25T02:33:00,rvs,15.45
2024-04-25T02:34:00,rvs,17.98
2024-04-25T02:35:00,rvs,20.62
2024-04-25T02:36:00,rvs,26.46
2024-04-25T02:37:00,rvs,24.55
2024-04-25T02:38:00,rvs,35.48
2024-04-25T02:39:00,rvs,38.99
2024-04-25T02:40:00,rvs,40.59
2024-04-25T02:41:00,rvs,42.03
2024-04-25T02:42:00,rvs,42.68
2024-04-25T02:43:00,rvs,31.54
2024-04-25T02:44:00,rvs,29.84
2024-04-25T02:45:00,rvs,30.95
2024-04-25T02:46:00,rvs,33.41
2024-04-25T02:47:00,rvs,26.39
2024-04-25T02:48:00,rvs,30.14
2024-04-25T02:49:00,rvs,22.15
2024-04-25T02:50:00,rvs,16.52
2024-04-25T02:51:00,rvs,15.98
2024-04-25T02:52:00,rvs,15.61
2024-04-25T02:53:00,rvs,15.39
2024-04-25T02:54:00,rvs,14.63
2024-04-25T02:55:00,rvs,16.37
2024-04-25T02:56:00,rvs,18.99
2024-04-25T02:57:00,rvs,19.18
2024-04-25T02:58:00,rvs,20.92
2024-04-25T02:59:00,rvs,18.11
2024-04-25T03:00:00,rvs,14.65
2024-04-25T03:01:00,rvs,15.07
2024-04-25T03:02:00,rvs,8.51
2024-04-25T03:03:00,rvs,8.71
2024-04-25T03:04:00,rvs,8.71
2024-04-25T03:05:00,rvs,10.40
2024-04-25T03:06:00,rvs,10.17
2024-04-25T03:07:00,rvs,10.70
2024-04-25T03:08:00,rvs,10.64
2024-04-25T03:09:00,rvs,10.19
2024-04-25T03:10:00,rvs,10.62
2024-04-25T03:11:00,rvs,12.47
2024-04-25T03:12:00,rvs,12.29
2024-04-25T03:13:00,rvs,17.32
2024-04-25T03:14:00,rvs,22.88
2024-04-25T03:15:00,rvs,23.95
2024-04-25T03:16:00,rvs,21.64
2024-04-25T03:17:00,rvs,22.63
2024-04-25T03:18:00,rvs,26.98
2024-04-25T03:19:00,rvs,26.00
2024-04-25T03:20:00,rvs,24.87
2024-04-25T03:21:00,rvs,23.39
2024-04-25T03:22:00,rvs,21.93
2024-04-25T03:23:00,rvs,22.28
2024-04-25T03:24:00,rvs,14.20
2024-04-25T03:25:00,rvs,14.27
2024-04-25T03:26:00,rvs,14.73
2024-04-25T03:27:00,rvs,17.34
2024-04-25T03:28:00,rvs,17.39
2024-04-25T03:29:00,rvs,17.84
2024-04-25T03:30:00,rvs,19.46
2024-04-25T03:31:00,rvs,19.20
2024-04-25T03:32:00,rvs,22.20
2024-04-25T03:33:00,rvs,23.60
2024-04-25T03:34:00,rvs,24.35
2024-04-25T03:35:00,rvs,25.84
2024-04-25T03:36:00,rvs,23.19
2024-04-25T03:37:00,rvs,26.26
2024-04-25T03:38:00,rvs,27.55
2024-04-25T03:39:00,rvs,29.49
2024-04-25T03:40:00,rvs,20.93
2024-04-25T03:41:00,rvs,24.08
2024-04-25T03:42:00,rvs,24.55
2024-04-25T03:43:00,rvs,26.39
2024-04-25T03:44:00,rvs,29.84
2024-04-25T03:45:00,rvs,31.18
2024-04-25T03:46:00,rvs,31.61
2024-04-25T03:47:00,rvs,37.46
2024-04-25T03:48:00,rvs,41.99
2024-04-25T03:49:00,rvs,43.32
2024-04-25T03:50:00,rvs,47.64
2024-04-25T03:51:00,rvs,55.77
2024-04-25T03:52:00,rvs,56.40
2024-04-25T03:53:00,rvs,56.12
2024-04-25T03:54:00,rvs,57.29
2024-04-25T03:55:00,rvs,31.23
2024-04-25T03:56:00,rvs,32.61
2024-04-25T03:57:00,rvs,36.91
2024-04-25T03:58:00,rvs,36.23
2024-04-25T03:59:00,rvs,42.59
2024-04-25T04:00:00,rvs,38.17
2024-04-25T04:01:00,rvs,40.77
2024-04-25T04:02:00,rvs,42.14
2024-04-25T04:03:00,rvs,40.83
2024-04-25T04:04:00,rvs,40.19
2024-04-25T04:05:00,rvs,35.70
2024-04-25T04:06:00,rvs,30.68
2024-04-25T04:07:00,rvs,33.26
2024-04-25T04:08:00,rvs,31.59
2024-04-25T04:09:00,rvs,34.64
2024-04-25T04:10:00,rvs,46.12
2024-04-25T04:11:00,rvs,49.31
2024-04-25T04:12:00,rvs,49.57
2024-04-25T04:13:00,rvs,47.44
2024-04-25T04:14:00,rvs,49.89
2024-04-25T04:15:00,rvs,56.70
2024-04-25T04:16:00,rvs,60.51
2024-04-25T04:17:00,rvs,36.02
2024-04-25T04:18:00,rvs,41.19
2024-04-25T04:19:00,rvs,43.55
2024-04-25T04:20:00,rvs,48.01
2024-04-25T04:21:00,rvs,55.14
2024-04-25T04:22:00,rvs,57.01
2024-04-25T04:23:00,rvs,64.97
2024-04-25T04:24:00,rvs,73.73
2024-04-25T04:25:00,rvs,66.47
2024-04-25T04:26:00,rvs,59.08
2024-04-25T04:27:00,rvs,57.90
2024-04-25T04:28:00,rvs,62.51
2024-04-25T04:29:00,rvs,64.47
2024-04-25T04:30:00,rvs,72.20
2024-04-25T04:31:00,rvs,74.52
2024-04-25T04:32:00,rvs,67.12
2024-04-25T04:33:00,rvs,76.89
2024-04-25T04:34:00,rvs,61.81
2024-04-25T04:35:00,rvs,64.35
2024-04-25T04:36:00,rvs,42.77
2024-04-25T04:37:00,rvs,30.40
2024-04-25T04:38:00,rvs,23.29
2024-04-25T04:39:00,rvs,22.48
2024-04-25T04:40:00,rvs,25.48
2024-04-25T04:41:00,rvs,25.96
2024-04-25T04:42:00,rvs,24.04
2024-04-25T04:43:00,rvs,25.92
2024-04-25T04:44:00,rvs,22.17
2024-04-25T04:45:00,rvs,23.94
2024-04-25T04:46:00,rvs,31.14
2024-04-25T04:47:00,rvs,36.98
2024-04-25T04:48:00,rvs,39.70
2024-04-25T04:49:00,rvs,41.39
2024-04-25T04:50:00,rvs,46.57
2024-04-25T04:51:00,rvs,57.93
2024-04-25T04:52:00,rvs,46.35
2024-04-25T04:53:00,rvs,37.22
2024-04-25T04:54:00,rvs,28.57
2024-04-25T04:55:00,rvs,29.10
2024-04-25T04:56:00,rvs,31.04
2024-04-25T04:57:00,rvs,29.94
2024-04-25T04:58:00,rvs,28.47
2024-04-25T04:59:00,rvs,29.68
2024-04-25T05:00:00,rvs,24.61
2024-04-25T05:01:00,rvs,12.13
2024-04-25T05:02:00,rvs,12.82
2024-04-25T05:03:00,rvs,14.24
2024-04-25T05:04:00,rvs,16.28
2024-04-25T05:05:00,rvs,17.12
2024-04-25T05:06:00,rvs,13.86
2024-04-25T05:07:00,rvs,13.09
2024-04-25T05:08:00,rvs,13.26
2024-04-25T05:09:00,rvs,7.70
2024-04-25T05:10:00,rvs,7.76
2024-04-25T05:11:00,rvs,7.78
2024-04-25T05:12:00,rvs,9.31
2024-04-25T05:13:00,rvs,9.19
2024-04-25T05:14:00,rvs,9.20
2024-04-25T05:15:00,rvs,9.13
2024-04-25T05:16:00,rvs,8.94
2024-04-25T05:17:00,rvs,7.60
2024-04-25T05:18:00,rvs,8.25
2024-04-25T05:19:00,rvs,21.37
2024-04-25T05:20:00,rvs,22.45
2024-04-25T05:21:00,rvs,24.59
2024-04-25T05:22:00,rvs,12.97
2024-04-25T05:23:00,rvs,16.42
2024-04-25T05:24:00,rvs,20.10
2024-04-25T05:25:00,rvs,18.97
2024-04-25T05:26:00,rvs,21.03
2024-04-25T05:27:00,rvs,22.05
2024-04-25T05:28:00,rvs,16.57
2024-04-25T05:29:00,rvs,16.90
2024-04-25T05:30:00,rvs,17.19
2024-04-25T05:31:00,rvs,17.90
2024-04-25T05:32:00,rvs,17.07
2024-04-25T05:33:00,rvs,17.25
2024-04-25T05:34:00,rvs,16.26
2024-04-25T05:35:00,rvs,14.43
2024-04-25T05:36:00,rvs,15.49
2024-04-25T05:37:00,rvs,15.57
2024-04-25T05:38:00,rvs,19.36
2024-04-25T05:39:00,rvs,20.51
2024-04-25T05:40:00,rvs,23.71
2024-04-25T05:41:00,rvs,21.97
2024-04-25T05:42:00,rvs,20.38
2024-04-25T05:43:00,rvs,26.85
2024-04-25T05:44:00,rvs,23.83
2024-04-25T05:45:00,rvs,22.09
2024-04-25T05:46:00,rvs,27.43
2024-04-25T05:47:00,rvs,25.25
2024-04-25T05:48:00,rvs,30.63
2024-04-25T05:49:00,rvs,31.07
2024-04-25T05:50:00,rvs,27.50
2024-04-25T05:51:00,rvs,28.84
2024-04-25T05:52:00,rvs,29.60
2024-04-25T05:53:00,rvs,28.35
2024-04-25T05:54:00,rvs,32.84
2024-04-25T05:55:00,rvs,27.05
2024-04-25T05:56:00,rvs,45.65
2024-04-25T05:57:00,rvs,48.20
2024-04-25T05:58:00,rvs,48.24
2024-04-25T05:59:00,rvs,41.66
2024-04-25T06:00:00,rvs,21.92
2024-04-25T06:01:00,rvs,24.50
2024-04-25T06:02:00,rvs,18.36
2024-04-25T06:03:00,rvs,20.56
2024-04-25T06:04:00,rvs,22.93
2024-04-25T06:05:00,rvs,21.06
2024-04-25T06:06:00,rvs,23.02
2024-04-25T06:07:00,rvs,28.56
2024-04-25T06:08:00,rvs,32.56
2024-04-25T06:09:00,rvs,32.03
2024-04-25T06:10:00,rvs,37.07
2024-04-25T06:11:00,rvs,36.09
2024-04-25T06:12:00,rvs,37.58
2024-04-25T06:13:00,rvs,40.47
2024-04-25T06:14:00,rvs,41.58
2024-04-25T06:15:00,rvs,35.57
2024-04-25T06:16:00,rvs,42.10
2024-04-25T06:17:00,rvs,43.11
2024-04-25T06:18:00,rvs,43.88
2024-04-25T06:19:00,rvs,24.18
2024-04-25T06:20:00,rvs,28.00
2024-04-25T06:21:00,rvs,28.14
2024-04-25T06:22:00,rvs,28.60
2024-04-25T06:23:00,rvs,35.43
2024-04-25T06:24:00,rvs,36.45
2024-04-25T06:25:00,rvs,41.89
2024-04-25T06:26:00,rvs,40.04
2024-04-25T06:27:00,rvs,39.27
2024-04-25T06:28:00,rvs,41.19
2024-04-25T06:29:00,rvs,38.48
2024-04-25T06:30:00,rvs,35.93
2024-04-25T06:31:00,rvs,36.36
2024-04-25T06:32:00,rvs,38.93
2024-04-25T06:33:00,rvs,36.93
2024-04-25T06:34:00,rvs,36.98
2024-04-25T06:35:00,rvs,39.69
2024-04-25T06:36:00,rvs,44.20
2024-04-25T06:37:00,rvs,56.74
2024-04-25T06:38:00,rvs,55.35
2024-04-25T06:39:00,rvs,53.54
2024-04-25T06:40:00,rvs,51.29
2024-04-25T06:41:00,rvs,58.91
2024-04-25T06:42:00,rvs,49.51
2024-04-25T06:43:00,rvs,50.57
2024-04-25T06:44:00,rvs,20.14
2024-04-25T06:45:00,rvs,19.62
2024-04-25T06:46:00,rvs,19.98
2024-04-25T06:47:00,rvs,19.02
2024-04-25T06:48:00,rvs,24.11
2024-04-25T06:49:00,rvs,30.26
2024-04-25T06:50:00,rvs,36.74
2024-04-25T06:51:00,rvs,39.79
2024-04-25T06:52:00,rvs,46.19
2024-04-25T06:53:00,rvs,44.59
2024-04-25T06:54:00,rvs,40.57
2024-04-25T06:55:00,rvs,37.87
2024-04-25T06:56:00,rvs,36.44
2024-04-25T06:57:00,rvs,30.51
2024-04-25T06:58:00,rvs,31.12
2024-04-25T06:59:00,rvs,21.64
2024-04-25T07:00:00,rvs,20.77
2024-04-25T07:01:00,rvs,23.92
2024-04-25T07:02:00,rvs,25.40
2024-04-25T07:03:00,rvs,28.97
2024-04-25T07:04:00,rvs,30.13
2024-04-25T07:05:00,rvs,30.83
2024-04-25T07:06:00,rvs,34.67
2024-04-25T07:07:00,rvs,37.80
2024-04-25T07:08:00,rvs,40.55
2024-04-25T07:09:00,rvs,38.10
2024-04-25T07:10:00,rvs,40.69
2024-04-25T07:11:00,rvs,40.26
2024-04-25T07:12:00,rvs,36.09
2024-04-25T07:13:00,rvs,41.23
2024-04-25T07:14:00,rvs,41.63
2024-04-25T07:15:00,rvs,43.69
2024-04-25T07:16:00,rvs,36.83
2024-04-25T07:17:00,rvs,37.63
2024-04-25T07:18:00,rvs,33.52
2024-04-25T07:19:00,rvs,30.27
2024-04-25T07:20:00,rvs,49.38
2024-04-25T07:21:00,rvs,49.46
2024-04-25T07:22:00,rvs,49.65
2024-04-25T07:23:00,rvs,51.93
2024-04-25T07:24:00,rvs,38.44
2024-04-25T07:25:00,rvs,50.69
2024-04-25T07:26:00,rvs,43.91
2024-04-25T07:27:00,rvs,45.31
2024-04-25T07:28:00,rvs,32.57
2024-04-25T07:29:00,rvs,24.78
2024-04-25T07:30:00,rvs,26.06
2024-04-25T07:31:00,rvs,23.66
2024-04-25T07:32:00,rvs,32.16
2024-04-25T07:33:00,rvs,31.49
2024-04-25T07:34:00,rvs,32.11
2024-04-25T07:35:00,rvs,35.82
2024-04-25T07:36:00,rvs,36.53
2024-04-25T07:37:00,rvs,41.64
2024-04-25T07:38:00,rvs,38.77
2024-04-25T07:39:00,rvs,40.24
2024-04-25T07:40:00,rvs,41.09
2024-04-25T07:41:00,rvs,39.65
2024-04-25T07:42:00,rvs,40.24
2024-04-25T07:43:00,rvs,37.81
2024-04-25T07:44:00,rvs,24.22
2024-04-25T07:45:00,rvs,22.50
2024-04-25T07:46:00,rvs,22.93
2024-04-25T07:47:00,rvs,19.81
2024-04-25T07:48:00,rvs,21.61
2024-04-25T07:49:00,rvs,23.41
2024-04-25T07:50:00,rvs,24.30
2024-04-25T07:51:00,rvs,27.46
2024-04-25T07:52:00,rvs,31.44
2024-04-25T07:53:00,rvs,33.91
2024-04-25T07:54:00,rvs,24.07
2024-04-25T07:55:00,rvs,27.82
2024-04-25T07:56:00,rvs,26.13
2024-04-25T07:57:00,rvs,24.15
2024-04-25T07:58:00,rvs,25.21
2024-04-25T07:59:00,rvs,34.30
2024-04-25T08:00:00,rvs,32.90
2024-04-25T08:01:00,rvs,45.72
2024-04-25T08:02:00,rvs,46.56
2024-04-25T08:03:00,rvs,37.00
2024-04-25T08:04:00,rvs,42.92
2024-04-25T08:05:00,rvs,43.43
2024-04-25T08:06:00,rvs,25.71
2024-04-25T08:07:00,rvs,32.90
2024-04-25T08:08:00,rvs,32.38
2024-04-25T08:09:00,rvs,35.94
2024-04-25T08:10:00,rvs,38.18
2024-04-25T08:11:00,rvs,39.78
2024-04-25T08:12:00,rvs,40.14
2024-04-25T08:13:00,rvs,42.75
2024-04-25T08:14:00,rvs,27.59
2024-04-25T08:15:00,rvs,40.77
2024-04-25T08:16:00,rvs,27.11
2024-04-25T08:17:00,rvs,27.80
2024-04-25T08:18:00,rvs,17.42
2024-04-25T08:19:00,rvs,18.47
2024-04-25T08:20:00,rvs,18.92
2024-04-25T08:21:00,rvs,21.87
2024-04-25T08:22:00,rvs,15.12
2024-04-25T08:23:00,rvs,17.42
2024-04-25T08:24:00,rvs,23.07
2024-04-25T08:25:00,rvs,22.64
2024-04-25T08:26:00,rvs,27.71
2024-04-25T08:27:00,rvs,26.80
2024-04-25T08:28:00,rvs,30.46
2024-04-25T08:29:00,rvs,35.84
2024-04-25T08:30:00,rvs,36.46
2024-04-25T08:31:00,rvs,36.39
2024-04-25T08:32:00,rvs,40.85
2024-04-25T08:33:00,rvs,41.32
2024-04-25T08:34:00,rvs,43.48
2024-04-25T08:35:00,rvs,43.78
2024-04-25T08:36:00,rvs,30.86
2024-04-25T08:37:00,rvs,17.37
2024-04-25T08:38:00,rvs,21.63
2024-04-25T08:39:00,rvs,22.77
2024-04-25T08:40:00,rvs,27.31
2024-04-25T08:41:00,rvs,27.48
2024-04-25T08:42:00,rvs,25.63
2024-04-25T08:43:00,rvs,22.64
2024-04-25T08:44:00,rvs,20.72
2024-04-25T08:45:00,rvs,22.39
2024-04-25T08:46:00,rvs,21.04
2024-04-25T08:47:00,rvs,21.77
2024-04-25T08:48:00,rvs,22.94
2024-04-25T08:49:00,rvs,22.63
2024-04-25T08:50:00,rvs,20.07
2024-04-25T08:51:00,rvs,20.13
2024-04-25T08:52:00,rvs,20.62
2024-04-25T08:53:00,rvs,27.64
2024-04-25T08:54:00,rvs,29.20
2024-04-25T08:55:00,rvs,13.19
2024-04-25T08:56:00,rvs,15.96
2024-04-25T08:57:00,rvs,12.58
2024-04-25T08:58:00,rvs,15.41
2024-04-25T08:59:00,rvs,18.36
2024-04-25T09:00:00,rvs,21.71
2024-04-25T09:01:00,rvs,23.54
2024-04-25T09:02:00,rvs,25.21
2024-04-25T09:03:00,rvs,24.70
2024-04-25T09:04:00,rvs,24.25
2024-04-25T09:05:00,rvs,28.15
2024-04-25T09:06:00,rvs,24.22
2024-04-25T09:07:00,rvs,15.11
2024-04-25T09:08:00,rvs,15.12
2024-04-25T09:09:00,rvs,14.98
2024-04-25T09:10:00,rvs,14.35
2024-04-25T09:11:00,rvs,14.60
2024-04-25T09:12:00,rvs,15.42
2024-04-25T09:13:00,rvs,17.63
2024-04-25T09:14:00,rvs,14.16
2024-04-25T09:15:00,rvs,15.19
2024-04-25T09:16:00,rvs,13.66
2024-04-25T09:17:00,rvs,18.96
2024-04-25T09:18:00,rvs,17.12
2024-04-25T09:19:00,rvs,16.51
2024-04-25T09:20:00,rvs,16.34
2024-04-25T09:21:00,rvs,18.60
2024-04-25T09:22:00,rvs,20.87
2024-04-25T09:23:00,rvs,19.43
2024-04-25T09:24:00,rvs,19.64
2024-04-25T09:25:00,rvs,11.99
2024-04-25T09:26:00,rvs,16.24
2024-04-25T09:27:00,rvs,21.42
2024-04-25T09:28:00,rvs,23.84
2024-04-25T09:29:00,rvs,29.14
2024-04-25T09:30:00,rvs,46.31
2024-04-25T09:31:00,rvs,48.36
2024-04-25T09:32:00,rvs,49.14
2024-04-25T09:33:00,rvs,52.18
2024-04-25T09:34:00,rvs,28.75
2024-04-25T09:35:00,rvs,46.68
2024-04-25T09:36:00,rvs,22.66
2024-04-25T09:37:00,rvs,24.48
2024-04-25T09:38:00,rvs,29.89
2024-04-25T09:39:00,rvs,31.93
2024-04-25T09:40:00,rvs,32.91
2024-04-25T09:41:00,rvs,36.69
2024-04-25T09:42:00,rvs,15.51
2024-04-25T09:43:00,rvs,14.93
2024-04-25T09:44:00,rvs,19.39
2024-04-25T09:45:00,rvs,26.01
2024-04-25T09:46:00,rvs,26.75
2024-04-25T09:47:00,rvs,29.89
2024-04-25T09:48:00,rvs,30.12
2024-04-25T09:49:00,rvs,24.63
2024-04-25T09:50:00,rvs,23.59
2024-04-25T09:51:00,rvs,24.73
2024-04-25T09:52:00,rvs,25.72
2024-04-25T09:53:00,rvs,24.09
2024-04-25T09:54:00,rvs,22.28
2024-04-25T09:55:00,rvs,25.93
2024-04-25T09:56:00,rvs,25.65
2024-04-25T09:57:00,rvs,26.39
2024-04-25T09:58:00,rvs,39.31
2024-04-25T09:59:00,rvs,42.73
2024-04-25T10:00:00,rvs,54.44
2024-04-25T10:01:00,rvs,57.90
2024-04-25T10:02:00,rvs,38.05
2024-04-25T10:03:00,rvs,46.54
2024-04-25T10:04:00,rvs,47.41
2024-04-25T10:05:00,rvs,45.90
2024-04-25T10:06:00,rvs,53.72
2024-04-25T10:07:00,rvs,56.43
2024-04-25T10:08:00,rvs,51.93
2024-04-25T10:09:00,rvs,50.47
2024-04-25T10:10:00,rvs,49.95
2024-04-25T10:11:00,rvs,47.11
2024-04-25T10:12:00,rvs,46.12
2024-04-25T10:13:00,rvs,49.93
2024-04-25T10:14:00,rvs,41.75
2024-04-25T10:15:00,rvs,36.11
2024-04-25T10:16:00,rvs,40.06
2024-04-25T10:17:00,rvs,37.62
2024-04-25T10:18:00,rvs,40.79
2024-04-25T10:19:00,rvs,40.41
2024-04-25T10:20:00,rvs,42.67
2024-04-25T10:21:00,rvs,45.64
2024-04-25T10:22:00,rvs,49.04
2024-04-25T10:23:00,rvs,46.96
2024-04-25T10:24:00,rvs,43.25
2024-04-25T10:25:00,rvs,37.11
2024-04-25T10:26:00,rvs,44.19
2024-04-25T10:27:00,rvs,41.91
2024-04-25T10:28:00,rvs,43.23
2024-04-25T10:29:00,rvs,52.95
2024-04-25T10:30:00,rvs,49.45
2024-04-25T10:31:00,rvs,50.09
2024-04-25T10:32:00,rvs,49.93
2024-04-25T10:33:00,rvs,48.24
2024-04-25T10:34:00,rvs,44.57
2024-04-25T10:35:00,rvs,30.63
2024-04-25T10:36:00,rvs,31.83
2024-04-25T10:37:00,rvs,32.69
2024-04-25T10:38:00,rvs,29.02
2024-04-25T10:39:00,rvs,32.81
2024-04-25T10:40:00,rvs,46.24
